Погода в Певеке

Погода в Певеке : погода сейчас, прогноз погоды и архив. Всё, что Вы хотите узнать о погоде в Певеке!

Хотите узнать прогноз погоды в Певеке? Тогда Вам сюда: Погода в Певеке

Поиск расширенной информации на нашем сайте:

Другие новости

Новости СМИ2

Главная страница сайта

Новости сайта

03.07.2017

Напоминаем, что на нашем специализированном сайте Метеоцентр.Азия вы можете получить высокодетализированные автоматические прогнозы погоды по пунктам России, СНГ и мира в авиационном формате (включающие направление и скорость ветра, видимость, явления погоды, количество и форму облачности, нижнюю и верхнюю границу облачности).


Погода в Певеке - сегодня

Время (UTC), дата Ветер
(°,м/с) 
Видим.   Явления Облачность Т
(°С)
Тd
(°С)
f(%) Тe
(°С)
Pmin
(гПа)
dP
(гПа)
Po
(мм)
O2
(г/м3)
Тmin Tmax R s Состояние
почвы
00 17.10.17 040 (СВ) 7-10{10}  10 км  слаб. ливневой снег  10/8 600 м кучево-дожд., средняя 
[Cb cap|Ac und]
-1.1 -3.6 83 -5  1015  0.1  761  308           
03 17.10.17 030 (СВ) 5{10}  10 км  слаб. ливневой снег  9/6 600 м кучево-дожд., средняя 
[Cb cap|Ac trans]
-1.1 -4 81 -4  1015.3  0.3  761  308           
06 17.10.17 040 (СВ) 4{08}  20000 м  в посл. час ливневой снег  8/3 600 м средняя, верхняя 
[Cu hum|Ac trans|Ci sp]
-1.6 -5.1 77 -4  1016  0.7  761  309           
09 17.10.17 030 (СВ) 4{06}  10 км  слаб. ливневой снег  9/5 600 м кучево-дожд., средняя 
[Cb cap|Ac trans]
-1.5 -4.7 79 -4  1016.8  0.8  762  309    -0.8  0.0     
12 17.10.17 020 (С) 2{06}  10 км  слаб. ливневой снег  10/8 600 м кучево-дожд., средняя 
[Cb cap|Ac und]
-1.3 -2.9 89 -2  1017.5  0.7  763  309           
15 17.10.17 060 (СВ) 2{07}  20000 м  в посл. час ливневой снег  6/3 600 м средняя 
[Cu hum|Ac trans]
-2.2 -4.8 82 -3  1017.9  0.4  763  310           
18 17.10.17 030 (СВ) 5{07}  10 км  слаб. ливневой снег  10/8 600 м кучево-дожд., средняя 
[Cb cap|Ac und]
-1 -4.3 78 -4  1018.3  0.4  763  309           
21 17.10.17 040 (СВ) 5{08}  20000 м  {ливн. осадки}  10/6 600 м средняя 
[Cu hum|Ac und]
-0.9 -3.9 80 -4  1019.1  0.8  764  309  -2.2    0.2  <0.5  равномерный
сухой снег
100% 
00 18.10.17 010 (С) 3{09}  10 км  слаб. ливневой снег  10/8 600 м кучево-дожд., средняя 
[Cb cap|Ac und]
-1.2 -3.1 87 -3  1019.7  0.6  764  310           
03 18.10.17 030 (СВ) 5{11}  10 км  слаб. ливневой снег  10/8 600 м кучево-дожд., средняя 
[Cb cap|Ac und]
-1.9 -4 86 -5  1020.3  0.6  765  311           
06 18.10.17 340 (С) 5{10}  10 км  слаб. ливневой снег  10/8 600 м кучево-дожд., средняя 
[Cb cap|Ac und]
-2.5 -6.5 74 -6  1021.3  765  312           
09 18.10.17 350 (С) 3{10}  10 км  слаб. ливневой снег  10/6 600 м кучево-дожд., средняя 
[Cb cap|Ac und]
-3.8 -8.1 72 -6  1021.9  0.6  766  314    -0.9  0.5     
12 18.10.17 350 (С) 4{09}  10 км  слаб. снег{ливн. осадки}  10/0 средняя 
[Ac As]
-4.2 -8.3 73 -7  1022.7  0.8  767  315           
15 18.10.17 340 (С) 3{08}  20000 м  снежные кристаллы  10/0 средняя 
[Ac As]
-4.1 -8.7 70 -6  1022.7  767  314           
18 18.10.17 360 (С) 1{07}  20000 м  снежные кристаллы  10/0 средняя 
[Ac As]
-4 -8.1 73 -4  1023  0.3  767  314           
21 18.10.17 010 (С) 2{09}  1000 м  сильн. снег  10/0 средняя 
[As op]
-3.4 -4.2 94 -5  1023.2  0.2  767  313  -4.7    0.9  равномерный
сухой снег
100% 
00 19.10.17 350 (С) 4{09}  20000 м  снежные кристаллы  10/0 средняя 
[Ac As]
-3 -6.8 75 -6  1023.2  767  313           
03 19.10.17 330 (СЗ) 5{09}  10 км  слаб. снег  10/0 средняя 
[As op]
-3.9 -7.5 76 -8  1022.9  -0.3  767  314           
06 19.10.17 340 (С) 5{11}  10 км  слаб. снег  10/0 средняя 
[As op]
-4.3 -7.9 76 -8  1022.9  767  315           
09 19.10.17 340 (С) 4{11}  2000 м  снег  10/0 средняя 
[As op]
-4.5 -5.7 91 -8  1022.5  -0.4  766  315    -2.9     
12 19.10.17 340 (С) 6-10{11}  10 км  слаб. снег  10/0 средняя 
[As op]
-4.2 -8.7 71 -8  1022.1  -0.4  766  314           
15 19.10.17 330 (СЗ) 8-11{11}  4000 м  слаб. снег  10/0 средняя 
[As op]
-3.8 -5.8 86 -9  1021.1  -1  765  313           
18 19.10.17 010 (С) 3{12}  10 км  слаб. снег  10/0 средняя 
[As op]
-3 -5.5 83 -5  1020.4  -0.7  765  312           
21 19.10.17 030 (СВ) 6{10}  4000 м  слаб. ливневой снег  10/9 300 м кучево-дожд., средняя 
[Cb cap|Ac und]
-4.5 -6.3 87 -9  1020.7  0.3  765  314  -4.7    неравномерный
сухой снег
100% 
00 20.10.17 030 (СВ) 5{12}  10 км  слаб. ливневой снег  10/4 600 м кучево-дожд., средняя 
[Cb cap|Ac und]
-4.2 -7.6 77 -8  1021.3  0.6  765  314           
Время (UTC), дата Ветер
(°,м/с) 
Видим.   Явления Облачность Т
(°С)
Тd
(°С)
f(%) Тe
(°С)
Pmin
(гПа)
dP
(гПа)
Po
(мм)
O2
(г/м3)
Тmin Tmax R s Состояние
почвы

Для получения пояснительной информации подведите курсор к названию столбца.

ПОГОДА в Певеке - архив

Всё, что Вы хотите узнать о погоде в Певеке - удобно и подробно!

Выберите нужную дату (начиная с 1 января 2015* года) и нажмите кнопку "Найти".
Будут отображены архивные сводки погоды по пункту Певек, начиная с указанной даты.


Отображать данные в формате CSV (для использования в таблицах Excel)


Внимание! Наш архив погоды предназначен исключительно для личного некоммерческого использования в познавательных целях. Если Вам необходимы официальные справки о состоянии погоды (для производственных, юридических, коммерческих и т.п. целей), обращайтесь в органы Росгидромета.

*Примечание: данная дата относится к архиву по метеостанциям СССР (Россия, СНГ, Балтия).
Архив по метеостанциям Зарубежной Европы и Азии (кроме Китая) хранится 10 дней, по другим регионам земного шара (Китай, Африка, Америка, Австралия, Океания) - 1 день.

Певек - район местоположения метеостанции


Название, широта, долгота, высота метеостанции:
Певек 69.7°ш. 170.3°д. 6 м над ур. моря [Российская Федерация]

Дополнительная информация

В oтличие oт бoльшинства пoгoдных сайтoв мы публикуем пoдрoбную метеoинфoрмацию в детальнoм прoфессиoнальнoм фoрмате.

Характеристики температуры и влажнoсти вoздуха измеряются на высoте 2 м в тени вдали oт зданий и деревьев.
Скoрoсть ветра измеряется на высoте 10 м (на урoвне рoста челoвека скoрoсть ветра ниже в 1.5-2 раза). Если метеoстанция нахoдится в гoрoде или в лесу, тo скoрoсть ветра занижена на 2-4 м/с пo сравнению с oткрытым местoм. Скoрoсть ветра над акватoриями крупных рек и oзёр, а также на вершинах хoлмoв на 2-5 м/с выше, чем в oбычных услoвиях.
Атмoсфернoе давление в разных тoчках местнoсти мoжет значительнo oтличаться oт давления на метеoстанции, в зависимoсти oт услoвий рельефа (при пoдъёме на 10 м давление пoнижается примернo на 1 мм рт.ст.).